Pittsfield, IL

6:19 PM CDT on September 25, 2017 (GMT -0500)
Pittsfield Penstone Municipal

Weather History for KPPQ - January, 2006

Change the Weather History Date:

Tuesday, January 24, 2006

  Actual Average (KUIN) Record (KUIN)
Temperature  
Mean Temperature 40 °F -  
Max Temperature 50 °F 36 °F 73 °F (1950)
Min Temperature 30 °F 19 °F -10 °F (1963)
Degree Days  
Heating Degree Days 25    
Moisture  
Dew Point 26 °F    
Average Humidity 59    
Maximum Humidity 93    
Minimum Humidity 30    
Precipitation  
Precipitation 0.00 in - - ()
Sea Level Pressure  
Sea Level Pressure 29.99 in    
Wind  
Wind Speed 14 mph (West)    
Max Wind Speed 32 mph    
Max Gust Speed 48 mph    
Visibility 9 miles    
Events      
Averages and records for this station are not official NWS values.
T = Trace of Precipitation, MM = Missing Value Source: NWS Daily Summary

Daily Weather History Graph

Daily Weather History Graph

Search for Another Location

Airport or City:

Trip Planner

Search our weather history database for the weather conditions in past years. The results will help you decide how hot, cold, wet, or windy it might be!

Date:

Astronomy

Jan. 24, 2006 Rise Set
Actual Time 7:17 AM CST 5:13 PM CST
Civil Twilight 6:48 AM CST 5:42 PM CST
Nautical Twilight 6:15 AM CST 6:15 PM CST
Astronomical Twilight 5:43 AM CST 6:47 PM CST
Moon 2:34 AM CST (1/24) 12:05 PM CST (1/24)
Length of Visible Light 10h 54m
Length of Day
9h 56m
Waning Crescent, 29% of the Moon is Illuminated
Jan 24
Waning Crescent
Jan 29
New
Feb 5
First Quarter
Feb 12
Full
Feb 21
Last Quarter

Hourly Weather History & Observations

Time (CST) Temp. Windchill Dew Point Humidity Pressure Visibility Wind Dir Wind Speed Gust Speed Precip Events Conditions
12:03 AM 30.2 °F 21.9 °F 28.4 °F 93% 30.04 in 7.0 mi WSW 9.2 mph - N/A   Clear
12:23 AM 30.2 °F 22.6 °F 28.4 °F 93% 30.03 in 7.0 mi SW 8.1 mph - N/A   Clear
12:43 AM 30.2 °F 22.6 °F 28.4 °F 93% 30.03 in 7.0 mi WSW 8.1 mph - N/A   Clear
1:03 AM 32.0 °F 24.2 °F 28.4 °F 87% 30.02 in 7.0 mi SW 9.2 mph - N/A   Clear
1:24 AM 32.0 °F 24.2 °F 28.4 °F 87% 30.01 in 7.0 mi WSW 9.2 mph - N/A   Clear
1:43 AM 32.0 °F 23.6 °F 28.4 °F 87% 30.00 in 7.0 mi SW 10.4 mph - N/A   Clear
2:04 AM 33.8 °F 25.8 °F 28.4 °F 81% 30.00 in 7.0 mi WSW 10.4 mph - N/A   Clear
2:23 AM 33.8 °F 26.4 °F 30.2 °F 87% 29.99 in 7.0 mi WSW 9.2 mph - N/A   Clear
2:44 AM 35.6 °F 27.5 °F 30.2 °F 81% 29.97 in 7.0 mi SW 11.5 mph - N/A   Clear
3:03 AM 35.6 °F 26.6 °F 30.2 °F 81% 29.96 in 10.0 mi WSW 13.8 mph 21.9 mph N/A   Clear
3:23 AM 37.4 °F 28.9 °F 30.2 °F 75% 29.94 in 7.0 mi WSW 13.8 mph 20.7 mph N/A   Clear
3:43 AM 37.4 °F 28.2 °F 30.2 °F 75% 29.94 in 10.0 mi WSW 16.1 mph 25.3 mph N/A   Clear
4:03 AM 35.6 °F 26.6 °F 30.2 °F 81% 29.93 in 7.0 mi WSW 13.8 mph 23.0 mph N/A   Clear
4:23 AM 35.6 °F 27.1 °F 30.2 °F 81% 29.93 in 7.0 mi WSW 12.7 mph 18.4 mph N/A   Clear
4:43 AM 35.6 °F - 30.2 °F 81% 29.92 in 7.0 mi Calm Calm - N/A   Clear
5:03 AM 35.6 °F 27.5 °F 30.2 °F 81% 29.92 in 7.0 mi WSW 11.5 mph - N/A   Clear
5:23 AM 35.6 °F 27.5 °F 30.2 °F 81% 29.92 in 10.0 mi WSW 11.5 mph - N/A   Clear
5:43 AM 37.4 °F 29.3 °F 30.2 °F 75% 29.91 in 10.0 mi WSW 12.7 mph 18.4 mph N/A   Clear
6:03 AM 37.4 °F 28.2 °F 30.2 °F 75% 29.92 in 10.0 mi WSW 16.1 mph 20.7 mph N/A   Clear
6:23 AM 37.4 °F 28.2 °F 30.2 °F 75% 29.92 in 10.0 mi WSW 16.1 mph 23.0 mph N/A   Clear
6:43 AM 37.4 °F 28.5 °F 30.2 °F 75% 29.91 in 10.0 mi WSW 15.0 mph 24.2 mph N/A   Clear
7:03 AM 37.4 °F 29.3 °F 30.2 °F 75% 29.92 in 10.0 mi WSW 12.7 mph - N/A   Clear
7:24 AM 37.4 °F 28.9 °F 30.2 °F 75% 29.92 in 10.0 mi WSW 13.8 mph 23.0 mph N/A   Clear
7:44 AM 37.4 °F 28.2 °F 30.2 °F 75% 29.91 in 10.0 mi WSW 16.1 mph 19.6 mph N/A   Clear
8:03 AM 37.4 °F 28.5 °F 30.2 °F 75% 29.92 in 10.0 mi WSW 15.0 mph 21.9 mph N/A   Clear
8:23 AM 37.4 °F 27.8 °F 30.2 °F 75% 29.93 in 10.0 mi WSW 17.3 mph 23.0 mph N/A   Clear
8:43 AM 39.2 °F 30.5 °F 30.2 °F 70% 29.93 in 10.0 mi WSW 16.1 mph 21.9 mph N/A   Clear
9:04 AM 39.2 °F 30.2 °F 30.2 °F 70% 29.93 in 10.0 mi WSW 17.3 mph 23.0 mph N/A   Clear
9:23 AM 41.0 °F 33.1 °F 30.2 °F 65% 29.93 in 10.0 mi West 15.0 mph 20.7 mph N/A   Clear
9:43 AM 42.8 °F 35.1 °F 32.0 °F 66% 29.94 in 10.0 mi West 16.1 mph - N/A   Clear
10:03 AM 44.6 °F 36.6 °F 30.2 °F 57% 29.95 in 10.0 mi West 19.6 mph 28.8 mph N/A   Clear
10:23 AM 44.6 °F 36.4 °F 32.0 °F 61% 29.95 in 10.0 mi West 20.7 mph 28.8 mph N/A   Clear
10:43 AM 46.4 °F 38.5 °F 30.2 °F 53% 29.96 in 10.0 mi West 21.9 mph 31.1 mph N/A   Clear
11:03 AM 46.4 °F 39.0 °F 30.2 °F 53% 29.96 in 10.0 mi West 19.6 mph 35.7 mph N/A   Clear
11:23 AM 48.2 °F - 28.4 °F 46% 29.95 in 10.0 mi West 19.6 mph 32.2 mph N/A   Clear
11:43 AM 48.2 °F - 28.4 °F 46% 29.95 in 10.0 mi West 19.6 mph 31.1 mph N/A   Clear
12:03 PM 48.2 °F - 26.6 °F 43% 29.94 in 10.0 mi West 18.4 mph 33.4 mph N/A   Clear
12:23 PM 48.2 °F - 24.8 °F 40% 29.93 in 10.0 mi West 28.8 mph 39.1 mph N/A   Clear
12:43 PM 48.2 °F - 24.8 °F 40% 29.93 in 10.0 mi West 21.9 mph 42.6 mph N/A   Clear
1:03 PM 50.0 °F - 24.8 °F 37% 29.93 in 10.0 mi West 24.2 mph 35.7 mph N/A   Scattered Clouds
1:23 PM 50.0 °F - 23.0 °F 35% 29.94 in 10.0 mi West 27.6 mph 36.8 mph N/A   Scattered Clouds
1:43 PM 50.0 °F - 21.2 °F 32% 29.94 in 10.0 mi West 32.2 mph 48.3 mph N/A   Scattered Clouds
2:03 PM 50.0 °F - 23.0 °F 35% 29.94 in 10.0 mi WNW 18.4 mph 32.2 mph N/A   Clear
2:23 PM 50.0 °F - 19.4 °F 30% 29.96 in 10.0 mi WNW 28.8 mph 44.9 mph N/A   Clear
2:44 PM 50.0 °F - 21.2 °F 32% 29.97 in 10.0 mi WNW 21.9 mph 29.9 mph N/A   Clear
3:03 PM 50.0 °F - 21.2 °F 32% 29.97 in 10.0 mi WNW 20.7 mph 36.8 mph N/A   Clear
3:23 PM 48.2 °F - 21.2 °F 34% 29.99 in 10.0 mi WNW 18.4 mph 29.9 mph N/A   Clear
3:46 PM 48.2 °F - 19.4 °F 32% 30.00 in 10.0 mi West 23.0 mph 39.1 mph N/A   Clear
4:03 PM 48.2 °F - 21.2 °F 34% 30.01 in 10.0 mi WNW 19.6 mph 26.5 mph N/A   Scattered Clouds
4:23 PM 46.4 °F 39.2 °F 19.4 °F 34% 30.03 in 10.0 mi WNW 18.4 mph 27.6 mph N/A   Clear
4:43 PM 46.4 °F 37.9 °F 17.6 °F 32% 30.04 in 10.0 mi WNW 25.3 mph 33.4 mph N/A   Clear
5:03 PM 44.6 °F 37.2 °F 17.6 °F 34% 30.06 in 10.0 mi WNW 17.3 mph 26.5 mph N/A   Clear
5:23 PM 42.8 °F 34.8 °F 17.6 °F 36% 30.08 in 10.0 mi WNW 17.3 mph 28.8 mph N/A   Clear
5:43 PM 41.0 °F 31.4 °F 17.6 °F 39% 30.11 in 10.0 mi WNW 21.9 mph 39.1 mph N/A   Clear
6:03 PM 39.2 °F 29.6 °F 17.6 °F 42% 30.12 in 10.0 mi WNW 19.6 mph 35.7 mph N/A   Clear
6:23 PM 39.2 °F 29.6 °F 17.6 °F 42% 30.13 in 10.0 mi WNW 19.6 mph 26.5 mph N/A   Clear
6:43 PM 39.2 °F 30.2 °F 17.6 °F 42% 30.14 in 10.0 mi WNW 17.3 mph 27.6 mph N/A   Clear
7:03 PM 37.4 °F 28.5 °F 17.6 °F 45% 30.15 in 10.0 mi WNW 15.0 mph 19.6 mph N/A   Clear
7:23 PM 37.4 °F 28.5 °F 15.8 °F 41% 30.16 in 10.0 mi WNW 15.0 mph 24.2 mph N/A   Clear
7:43 PM 37.4 °F 28.5 °F 15.8 °F 41% 30.17 in 10.0 mi WNW 15.0 mph 25.3 mph N/A   Clear
8:03 PM 37.4 °F 27.5 °F 15.8 °F 41% 30.18 in 10.0 mi WNW 18.4 mph 27.6 mph N/A   Clear
8:23 PM 37.4 °F 27.8 °F 15.8 °F 41% 30.19 in 10.0 mi WNW 17.3 mph 24.2 mph N/A   Clear
8:43 PM 37.4 °F 27.8 °F 17.6 °F 45% 30.20 in 10.0 mi WNW 17.3 mph 21.9 mph N/A   Clear
9:03 PM 35.6 °F 25.2 °F 17.6 °F 48% 30.21 in 10.0 mi WNW 18.4 mph 28.8 mph N/A   Clear
9:24 PM 35.6 °F 26.2 °F 17.6 °F 48% 30.22 in 10.0 mi WNW 15.0 mph 24.2 mph N/A   Clear
9:43 PM 35.6 °F 25.5 °F 19.4 °F 52% 30.23 in 10.0 mi WNW 17.3 mph 24.2 mph N/A   Clear
10:03 PM 35.6 °F 25.5 °F 19.4 °F 52% 30.24 in 10.0 mi WNW 17.3 mph 25.3 mph N/A   Clear
10:23 PM 33.8 °F 25.3 °F 19.4 °F 56% 30.25 in 10.0 mi WNW 11.5 mph - N/A   Clear
10:43 PM 33.8 °F 24.3 °F 19.4 °F 56% 30.25 in 10.0 mi WNW 13.8 mph 20.7 mph N/A   Clear
11:03 PM 33.8 °F 23.5 °F 21.2 °F 60% 30.26 in 10.0 mi WNW 16.1 mph 21.9 mph N/A   Clear
11:23 PM 33.8 °F 24.8 °F 21.2 °F 60% 30.27 in 10.0 mi WNW 12.7 mph 20.7 mph N/A   Clear
11:43 PM 33.8 °F 24.3 °F 21.2 °F 60% 30.27 in 10.0 mi WNW 13.8 mph 23.0 mph N/A   Clear